Location: ?????????
(54.7630°N, 39.4991°E)
Time: 17:28:33
(UTC+00:00)

Cosmos 1697 Rocket - Pass Details

Date: 14 April 2026
Orbit: 832 x 842 km, 71.0° (Epoch: 16 May)

Event Time Altitude Azimuth Distance (km) Brightness Sun altitude
Rises 22:26:14 0° 325° (NW) 3,406 6.4 -24.2°
Reaches altitude 10° 22:28:42 10° 323° (NW) 2,467 5.5 -24.1°
Maximum altitude 22:34:18 66° 243° (WSW) 914 2.6 -23.8°
Enters shadow 22:35:02 59° 202° (SSW) 962 2.6 -23.8°
